Location: Archemont
(49.1579°N, 1.7598°E)
Time: 12:03:18
(UTC+00:00)

SKYMED 2 - Pass Details

Date: 03 February 2023
Orbit: 621 x 623 km, 97.9° (Epoch: 26 March)

Event Time Altitude Azimuth Distance (km) Brightness Sun altitude
Rises 17:51:34 0° 16° (NNE) 2,921 6.7 -9.9°
Reaches altitude 10° 17:53:48 10° 20° (NNE) 2,009 5.9 -10.3°
Maximum altitude 17:58:07 61° 101° (E) 713 3.6 -11.0°
Drops below altitude 10° 18:02:25 10° 182° (S) 1,991 6.3 -11.7°
Sets 18:04:37 0° 186° (S) 2,892 7.2 -12.0°
